Location: Boulin
(43.2500°N, 0.1333°E)
Time: 21:45:50
(UTC+00:00)

Cosmos 1937 Rocket - Pass Details

Date: 11 December 2025
Orbit: 743 x 775 km, 74.0° (Epoch: 21 January)

Event Time Altitude Azimuth Distance (km) Brightness Sun altitude
Rises 18:39:11 0° 197° (SSW) 3,203 7.1 -23.7°
Reaches altitude 10° 18:41:33 10° 196° (SSW) 2,277 6.2 -24.2°
Maximum altitude 18:46:43 85° 108° (ESE) 760 3.3 -25.1°
Enters shadow 18:47:14 73° 35° (NE) 790 3.3 -25.2°
